Starlink 31156

operational
NORAD ID: 58743 Int'l Des: 2024-005 Owner: SPXS Country: US Constellation: starlink
LEOCIRCULAR

About Starlink 31156

Description loading...

Live Position

Loading 3D Globe...

Upcoming Passes

Altitude History

Altitude vs Time

uPlot chart will show altitude changes over time

Two-Line Element Set

1 58743U 24005R 25303.80510206 .00000718 00000-0 68224-4 0 9995
2 58743 43.0009 207.3850 0001234 268.9824 91.0877 15.02537929100937
Epoch: Oct 30, 2025 • Age: 13 hours

Current Status

Altitude 558.4 km
Velocity 7.58 km/s
Sub-Earth Point 9.79°N, 158.49°W
Launch Date Jan 7, 2024
Age 1.8 years
Type internet

Technical Details

Classification Payload
Mass 730.00 kg
Dry Mass 700.00 kg
Total Mass 730.00 kg
Length 0.30 m
Diameter 4.10 m
Span 29.00 m
Shape Box + pan
Manufacturer SPXS
Bus Type Starlink V2M
Phase Status In Orbit
Owner/State SPXS/US

Large Constellations

Loading constellations...